Location: Newark
(41.5333°N, 14.5500°E)
Time: 20:53:10
(UTC+00:00)

Envisat - Pass Details

Date: 29 January 2020
Orbit: 764 x 766 km, 98.1° (Epoch: 22 February)

Event Time Altitude Azimuth Distance (km) Brightness Sun altitude
Rises 05:23:24 0° 17° (NNE) 3,240 6.3 -10.3°
Reaches altitude 10° 05:25:46 10° 22° (NNE) 2,309 5.6 -9.9°
Maximum altitude 05:30:45 55° 100° (E) 916 3.9 -9.0°
Drops below altitude 10° 05:35:42 10° 178° (S) 2,292 5.7 -8.1°
Sets 05:38:03 0° 183° (S) 3,214 6.4 -7.7°
